| time (UTC) | temp F | wind direction | speed knots | gust knots | rain 1hr in | rain 24hr in | rain mn in | humidity % | barometer mb |
| 20260906234018 | 74 | 45 | 6.1 | 8.7 | 0.00 | 0.00 | 0.00 | 44 | 1025.0 |
| 20260906233018 | 74 | 45 | 6.1 | 7.8 | 0.00 | 0.00 | 0.00 | 44 | 1025.0 |
| 20260906232018 | 75 | 45 | 6.1 | 8.7 | 0.00 | 0.00 | 0.00 | 42 | 1025.0 |
| 20260906231018 | 75 | 45 | 6.1 | 7.8 | 0.00 | 0.00 | 0.00 | 42 | 1025.1 |
| 20260906230018 | 75 | 45 | 5.2 | 7.8 | 0.00 | 0.00 | 0.00 | 43 | 1025.2 |
| 20260906225018 | 76 | 45 | 6.1 | 8.7 | 0.00 | 0.00 | 0.00 | 42 | 1025.2 |
| 20260906224039 | 76 | 45 | 4.3 | 7.0 | 0.00 | 0.00 | 0.00 | 40 | 1025.1 |
| 20260906223018 | 76 | 45 | 5.2 | 7.0 | 0.00 | 0.00 | 0.00 | 41 | 1025.2 |
| 20260906222018 | 77 | 45 | 5.2 | 7.8 | 0.00 | 0.00 | 0.00 | 41 | 1025.1 |
| 20260906221018 | 78 | 23 | 3.5 | 7.0 | 0.00 | 0.00 | 0.00 | 39 | 1025.1 |
| 20260906220017 | 77 | 45 | 4.3 | 7.8 | 0.00 | 0.00 | 0.00 | 40 | 1025.1 |
| 20260906215017 | 78 | 45 | 3.5 | 6.1 | 0.00 | 0.00 | 0.00 | 42 | 1025.0 |
| 20260906214018 | 78 | 45 | 5.2 | 8.7 | 0.00 | 0.00 | 0.00 | 42 | 1024.9 |
| 20260906213018 | 79 | 45 | 5.2 | 7.8 | 0.00 | 0.00 | 0.00 | 40 | 1025.0 |
| 20260906212017 | 79 | 45 | 4.3 | 7.0 | 0.00 | 0.00 | 0.00 | 39 | 1025.0 |
| 20260906211018 | 80 | 45 | 3.5 | 7.8 | 0.00 | 0.00 | 0.00 | 37 | 1025.1 |
| 20260906210017 | 80 | 45 | 4.3 | 7.8 | 0.00 | 0.00 | 0.00 | 41 | 1025.2 |
| 20260906205017 | 81 | 338 | 3.5 | 5.2 | 0.00 | 0.00 | 0.00 | 35 | 1025.0 |
| 20260906204017 | 81 | 338 | 3.5 | 5.2 | 0.00 | 0.00 | 0.00 | 35 | 1024.9 |
| 20260906203017 | 81 | 338 | 4.3 | 7.0 | 0.00 | 0.00 | 0.00 | 35 | 1024.9 |
| 20260906202017 | 82 | 0 | 3.5 | 6.1 | 0.00 | 0.00 | 0.00 | 36 | 1024.8 |
| 20260906201057 | 83 | 0 | 3.5 | 6.1 | 0.00 | 0.00 | 0.00 | 32 | 1024.6 |
| 20260906200057 | 83 | 0 | 2.6 | 6.1 | 0.00 | 0.00 | 0.00 | 33 | 1024.5 |
| 20260906195017 | 83 | 0 | 2.6 | 5.2 | 0.00 | 0.00 | 0.00 | 33 | 1024.3 |
| 20260906194017 | 83 | 338 | 3.5 | 7.0 | 0.00 | 0.00 | 0.00 | 32 | 1024.1 |
| 20260906193017 | 84 | 338 | 2.6 | 7.0 | 0.00 | 0.00 | 0.00 | 33 | 1024.1 |
| 20260906192017 | 85 | 315 | 1.7 | 6.1 | 0.00 | 0.00 | 0.00 | 33 | 1023.7 |
| 20260906191017 | 85 | 338 | 0.9 | 3.5 | 0.00 | 0.00 | 0.00 | 33 | 1023.7 |
| 20260906190017 | 86 | 0.0 | 2.6 | 0.00 | 0.00 | 0.00 | 33 | 1023.6 | |
| 20260906185017 | 86 | 338 | 0.9 | 2.6 | 0.00 | 0.00 | 0.00 | 33 | 1023.4 |
| 20260906184017 | 87 | 0.0 | 1.7 | 0.00 | 0.00 | 0.00 | 35 | 1023.3 | |
| 20260906183017 | 88 | 113 | 0.9 | 2.6 | 0.00 | 0.00 | 0.00 | 36 | 1023.2 |
| 20260906182017 | 88 | 158 | 1.7 | 5.2 | 0.00 | 0.00 | 0.00 | 35 | 1023.0 |
| 20260906181017 | 88 | 0 | 4.3 | 10.4 | 0.00 | 0.00 | 0.00 | 34 | 1022.9 |
| 20260906180017 | 90 | 135 | 2.6 | 7.8 | 0.00 | 0.00 | 0.00 | 32 | 1022.9 |
| 20260906175017 | 92 | 248 | 0.9 | 4.3 | 0.00 | 0.00 | 0.00 | 25 | 1022.8 |
| 20260906174017 | 92 | 248 | 1.7 | 3.5 | 0.00 | 0.00 | 0.00 | 22 | 1022.7 |
| 20260906173017 | 93 | 270 | 3.5 | 7.0 | 0.00 | 0.00 | 0.00 | 21 | 1022.9 |
| 20260906172017 | 93 | 248 | 7.0 | 11.3 | 0.00 | 0.00 | 0.00 | 20 | 1022.9 |
| 20260906171037 | 94 | 0 | 5.2 | 10.4 | 0.00 | 0.00 | 0.00 | 20 | 1023.0 |
| 20260906170017 | 94 | 0 | 6.1 | 11.3 | 0.00 | 0.00 | 0.00 | 19 | 1022.8 |
| 20260906165017 | 95 | 248 | 7.8 | 13.9 | 0.00 | 0.00 | 0.00 | 19 | 1022.7 |
| 20260906164016 | 95 | 248 | 9.6 | 15.6 | 0.00 | 0.00 | 0.00 | 19 | 1022.7 |
| 20260906163017 | 95 | 225 | 7.8 | 16.5 | 0.00 | 0.00 | 0.00 | 19 | 1022.6 |
| 20260906162017 | 95 | 0 | 8.7 | 14.8 | 0.00 | 0.00 | 0.00 | 19 | 1022.5 |
| 20260906161057 | 96 | 0 | 9.6 | 18.2 | 0.00 | 0.00 | 0.00 | 18 | 1022.6 |
| 20260906160016 | 96 | 0 | 6.1 | 14.8 | 0.00 | 0.00 | 0.00 | 18 | 1022.6 |
| 20260906155016 | 96 | 225 | 7.8 | 14.8 | 0.00 | 0.00 | 0.00 | 19 | 1022.8 |
| 20260906154016 | 95 | 0 | 6.1 | 13.0 | 0.00 | 0.00 | 0.00 | 20 | 1022.7 |
| 20260906153017 | 95 | 0 | 8.7 | 16.5 | 0.00 | 0.00 | 0.00 | 19 | 1022.7 |
| 20260906152016 | 96 | 225 | 6.1 | 13.0 | 0.00 | 0.00 | 0.00 | 20 | 1022.7 |
| 20260906151038 | 96 | 248 | 6.1 | 11.3 | 0.00 | 0.00 | 0.00 | 19 | 1022.7 |
| 20260906150018 | 96 | 248 | 9.6 | 15.6 | 0.00 | 0.00 | 0.00 | 19 | 1022.8 |
| 20260906145018 | 97 | 225 | 7.8 | 20.0 | 0.00 | 0.00 | 0.00 | 19 | 1022.9 |
| 20260906144018 | 97 | 0 | 7.8 | 16.5 | 0.00 | 0.00 | 0.00 | 19 | 1023.0 |
| 20260906143039 | 97 | 0 | 8.7 | 17.4 | 0.00 | 0.00 | 0.00 | 18 | 1023.0 |
| 20260906142018 | 97 | 0 | 11.3 | 19.1 | 0.00 | 0.00 | 0.00 | 19 | 1022.8 |
| 20260906141018 | 96 | 225 | 12.2 | 19.1 | 0.00 | 0.00 | 0.00 | 19 | 1022.8 |
| 20260906140019 | 97 | 0 | 12.2 | 20.9 | 0.00 | 0.00 | 0.00 | 19 | 1022.8 |
| 20260906135018 | 97 | 0 | 9.6 | 15.6 | 0.00 | 0.00 | 0.00 | 19 | 1022.9 |
| 20260906134038 | 97 | 0 | 11.3 | 18.2 | 0.00 | 0.00 | 0.00 | 20 | 1023.1 |
| 20260906133038 | 97 | 0 | 12.2 | 20.0 | 0.00 | 0.00 | 0.00 | 20 | 1023.3 |
| 20260906132018 | 97 | 225 | 10.4 | 19.1 | 0.00 | 0.00 | 0.00 | 19 | 1023.3 |
| 20260906131018 | 97 | 0 | 11.3 | 19.1 | 0.00 | 0.00 | 0.00 | 20 | 1023.3 |
| 20260906130018 | 96 | 0 | 13.0 | 23.5 | 0.00 | 0.00 | 0.00 | 20 | 1023.3 |
| 20260906125018 | 97 | 0 | 8.7 | 15.6 | 0.00 | 0.00 | 0.00 | 20 | 1023.3 |
| 20260906124058 | 96 | 225 | 8.7 | 16.5 | 0.00 | 0.00 | 0.00 | 21 | 1023.3 |
| 20260906123018 | 97 | 0 | 8.7 | 17.4 | 0.00 | 0.00 | 0.00 | 21 | 1023.5 |
| 20260906122018 | 96 | 0 | 10.4 | 19.1 | 0.00 | 0.00 | 0.00 | 21 | 1023.5 |
| 20260906121058 | 96 | 0 | 10.4 | 16.5 | 0.00 | 0.00 | 0.00 | 21 | 1023.7 |
| 20260906120018 | 96 | 0 | 11.3 | 16.5 | 0.00 | 0.00 | 0.00 | 21 | 1023.5 |
| 20260906115038 | 94 | 225 | 5.2 | 16.5 | 0.00 | 0.00 | 0.00 | 23 | 1023.4 |
| 20260906114038 | 93 | 113 | 2.6 | 8.7 | 0.00 | 0.00 | 0.00 | 32 | 1023.7 |
| 20260906113018 | 92 | 23 | 1.7 | 4.3 | 0.00 | 0.00 | 0.00 | 34 | 1023.7 |
| 20260906112018 | 92 | 135 | 2.6 | 5.2 | 0.00 | 0.00 | 0.00 | 36 | 1023.9 |
| 20260906111018 | 91 | 113 | 1.7 | 4.3 | 0.00 | 0.00 | 0.00 | 36 | 1024.0 |
| 20260906110018 | 90 | 135 | 2.6 | 6.1 | 0.00 | 0.00 | 0.00 | 37 | 1024.2 |
| 20260906105018 | 90 | 0 | 2.6 | 5.2 | 0.00 | 0.00 | 0.00 | 37 | 1024.2 |
| 20260906104038 | 90 | 0 | 1.7 | 4.3 | 0.00 | 0.00 | 0.00 | 39 | 1024.3 |
| 20260906103018 | 89 | 135 | 2.6 | 5.2 | 0.00 | 0.00 | 0.00 | 39 | 1024.4 |
| 20260906102018 | 88 | 0 | 2.6 | 6.1 | 0.00 | 0.00 | 0.00 | 40 | 1024.4 |
| 20260906101018 | 87 | 0 | 4.3 | 7.8 | 0.00 | 0.00 | 0.00 | 41 | 1024.4 |
| 20260906100018 | 87 | 0 | 3.5 | 6.1 | 0.00 | 0.00 | 0.00 | 40 | 1024.4 |
| 20260906095017 | 87 | 158 | 1.7 | 7.0 | 0.00 | 0.00 | 0.00 | 39 | 1024.6 |
| 20260906094038 | 86 | 0 | 1.7 | 5.2 | 0.00 | 0.00 | 0.00 | 39 | 1024.5 |
| 20260906093018 | 86 | 0 | 1.7 | 4.3 | 0.00 | 0.00 | 0.00 | 40 | 1024.4 |
| 20260906092037 | 85 | 0 | 1.7 | 3.5 | 0.00 | 0.00 | 0.00 | 42 | 1024.5 |
| 20260906091018 | 85 | 0 | 1.7 | 3.5 | 0.00 | 0.00 | 0.00 | 43 | 1024.5 |
| 20260906090019 | 85 | 158 | 0.9 | 3.5 | 0.00 | 0.00 | 0.00 | 43 | 1024.5 |
| 20260906085017 | 84 | 180 | 0.9 | 2.6 | 0.00 | 0.00 | 0.00 | 46 | 1024.6 |
| 20260906084018 | 84 | 180 | 0.9 | 2.6 | 0.00 | 0.00 | 0.00 | 46 | 1024.5 |
| 20260906083018 | 83 | 68 | 0.9 | 2.6 | 0.00 | 0.00 | 0.00 | 47 | 1024.3 |
| 20260906082038 | 81 | 90 | 1.7 | 2.6 | 0.00 | 0.00 | 0.00 | 46 | 1024.3 |
| 20260906081017 | 80 | 90 | 1.7 | 6.1 | 0.00 | 0.00 | 0.00 | 47 | 1024.2 |
| 20260906080017 | 79 | 68 | 1.7 | 4.3 | 0.00 | 0.00 | 0.00 | 49 | 1024.1 |
| 20260906075017 | 78 | 90 | 3.5 | 6.1 | 0.00 | 0.00 | 0.00 | 50 | 1024.1 |
| 20260906074017 | 77 | 90 | 3.5 | 6.1 | 0.00 | 0.00 | 0.00 | 50 | 1024.0 |
| 20260906073017 | 77 | 90 | 2.6 | 7.0 | 0.00 | 0.00 | 0.00 | 51 | 1024.0 |
| 20260906072017 | 76 | 68 | 3.5 | 6.1 | 0.00 | 0.00 | 0.00 | 52 | 1024.0 |
| 20260906071017 | 75 | 45 | 3.5 | 6.1 | 0.00 | 0.00 | 0.00 | 51 | 1024.0 |
| 20260906070017 | 75 | 45 | 3.5 | 6.1 | 0.00 | 0.00 | 0.00 | 52 | 1024.1 |
| 20260906065017 | 74 | 45 | 4.3 | 7.0 | 0.00 | 0.00 | 0.00 | 51 | 1024.1 |
| 20260906064017 | 73 | 45 | 3.5 | 5.2 | 0.00 | 0.00 | 0.00 | 53 | 1024.1 |
| 20260906063017 | 73 | 45 | 4.3 | 6.1 | 0.00 | 0.00 | 0.00 | 52 | 1024.1 |
| 20260906062017 | 72 | 45 | 2.6 | 5.2 | 0.00 | 0.00 | 0.00 | 55 | 1024.0 |
| 20260906061017 | 72 | 45 | 3.5 | 6.1 | 0.00 | 0.00 | 0.00 | 55 | 1024.0 |
| 20260906060017 | 71 | 68 | 2.6 | 5.2 | 0.00 | 0.00 | 0.00 | 56 | 1024.0 |
| 20260906055017 | 70 | 45 | 2.6 | 4.3 | 0.00 | 0.00 | 0.00 | 57 | 1024.0 |
| 20260906054017 | 70 | 45 | 2.6 | 6.1 | 0.00 | 0.00 | 0.00 | 59 | 1023.9 |
| 20260906053017 | 70 | 45 | 2.6 | 5.2 | 0.00 | 0.00 | 0.00 | 58 | 1023.9 |
| 20260906052017 | 71 | 45 | 4.3 | 6.1 | 0.00 | 0.00 | 0.00 | 58 | 1023.9 |
| 20260906051017 | 71 | 45 | 4.3 | 7.0 | 0.00 | 0.00 | 0.00 | 56 | 1023.8 |
| 20260906050016 | 72 | 45 | 2.6 | 7.0 | 0.00 | 0.00 | 0.00 | 56 | 1023.8 |
| 20260906045017 | 72 | 68 | 3.5 | 5.2 | 0.00 | 0.00 | 0.00 | 55 | 1023.9 |
| 20260906044037 | 72 | 45 | 3.5 | 7.0 | 0.00 | 0.00 | 0.00 | 53 | 1023.9 |
| 20260906043017 | 72 | 45 | 3.5 | 5.2 | 0.00 | 0.00 | 0.00 | 55 | 1024.0 |
| 20260906042117 | 72 | 23 | 2.6 | 4.3 | 0.00 | 0.00 | 0.00 | 55 | 1024.0 |
| 20260906041016 | 72 | 45 | 3.5 | 6.1 | 0.00 | 0.00 | 0.00 | 56 | 1024.0 |
| 20260906040017 | 72 | 45 | 3.5 | 5.2 | 0.00 | 0.00 | 0.00 | 56 | 1024.0 |
| 20260906035017 | 72 | 90 | 0.9 | 3.5 | 0.00 | 0.00 | 0.00 | 57 | 1024.2 |
| 20260906034017 | 72 | 45 | 2.6 | 7.0 | 0.00 | 0.00 | 0.00 | 56 | 1024.2 |
| 20260906033018 | 73 | 45 | 4.3 | 6.1 | 0.00 | 0.00 | 0.00 | 56 | 1024.4 |
| 20260906032016 | 74 | 45 | 2.6 | 5.2 | 0.00 | 0.00 | 0.00 | 54 | 1024.6 |
| 20260906031017 | 74 | 0 | 0.9 | 2.6 | 0.00 | 0.00 | 0.00 | 54 | 1024.6 |
| 20260906030017 | 73 | 315 | 1.7 | 3.5 | 0.00 | 0.00 | 0.00 | 57 | 1024.5 |
| 20260906025016 | 72 | 23 | 2.6 | 7.0 | 0.00 | 0.00 | 0.00 | 58 | 1024.4 |
| 20260906024016 | 72 | 23 | 5.2 | 7.8 | 0.00 | 0.00 | 0.00 | 60 | 1024.4 |
| 20260906023016 | 73 | 23 | 6.1 | 8.7 | 0.00 | 0.00 | 0.00 | 58 | 1024.4 |
| 20260906022016 | 73 | 45 | 6.1 | 8.7 | 0.00 | 0.00 | 0.00 | 58 | 1024.6 |
| 20260906021016 | 73 | 45 | 5.2 | 9.6 | 0.00 | 0.00 | 0.00 | 59 | 1024.7 |
| 20260906020016 | 73 | 45 | 5.2 | 7.8 | 0.00 | 0.00 | 0.00 | 58 | 1024.8 |
| 20260906015016 | 73 | 45 | 5.2 | 7.8 | 0.00 | 0.00 | 0.00 | 58 | 1024.8 |
| 20260906014018 | 73 | 45 | 3.5 | 5.2 | 0.00 | 0.00 | 0.00 | 59 | 1024.8 |
| 20260906013018 | 73 | 45 | 5.2 | 7.8 | 0.00 | 0.00 | 0.00 | 59 | 1024.8 |
| 20260906012018 | 73 | 45 | 4.3 | 7.0 | 0.00 | 0.00 | 0.00 | 58 | 1024.9 |
| 20260906011018 | 73 | 45 | 2.6 | 5.2 | 0.00 | 0.00 | 0.00 | 58 | 1024.9 |
| 20260906010018 | 73 | 45 | 3.5 | 5.2 | 0.00 | 0.00 | 0.00 | 59 | 1024.9 |
| 20260906005018 | 74 | 45 | 4.3 | 7.0 | 0.00 | 0.00 | 0.00 | 58 | 1025.1 |
| 20260906004018 | 74 | 45 | 1.7 | 5.2 | 0.00 | 0.00 | 0.00 | 56 | 1025.0 |
| 20260906003018 | 74 | 45 | 2.6 | 4.3 | 0.00 | 0.00 | 0.00 | 57 | 1025.1 |
| 20260906002038 | 74 | 45 | 4.3 | 6.1 | 0.00 | 0.00 | 0.00 | 57 | 1025.1 |
| 20260906001018 | 75 | 45 | 4.3 | 6.1 | 0.00 | 0.00 | 0.00 | 57 | 1025.2 |
| 20260906000037 | 75 | 45 | 3.5 | 6.1 | 0.00 | 0.00 | 0.00 | 57 | 1025.3 |
| 20260905235018 | 75 | 45 | 1.7 | 2.6 | 0.00 | 0.00 | 0.00 | 56 | 1025.2 |